Regional Weather Roundup
Issued by NWS Wakefield, VA

Home | Current Version | Previous Version | Graphics & Text | Print | Product List | Glossary On
Versions: 1 2 3 4 5 6 7 8 9 10 11 12 13 14 15 16 17 18 19 20 21 22 23 24 25 26 27 28 29 30 31 32 33 34 35 36 37 38 39 40 41 42 43 44 45 46 47 48 49 50
000
ASUS41 KAKQ 040515
RWRAKQ

REGIONAL WEATHER ROUNDUP
NATIONAL WEATHER SERVICE WAKEFIELD VA
100 AM EDT SAT JUL 04 2015

Note: "fair" indicates few or no clouds below 12,000 feet with no
significant weather and/or obstructions to visibility. * = Denotes
station may not report precipitation (e.g., rain,snow,etc.),
thunder or fog.

VAZ042-051-052>054-056-040600-
NORTHERN VIRGINIA

CITY           SKY/WX    TMP DP  RH WIND       PRES   REMARKS
WASH NATIONAL  CLOUDY    74  67  78 CALM      29.93F
DULLES         LGT RAIN  69  65  86 CALM      29.92F
FORT BELVOIR   CLOUDY    68  66  95 CALM      29.92F
QUANTICO       CLOUDY    73  66  78 SE5       29.92F
FREDERICKSBRG* CLOUDY    71  71 100 CALM      29.91S
STAFFORD*      CLOUDY    68  65  90 CALM      29.95F
WARRENTON      CLOUDY    69  69  99 CALM      29.92S FOG
CULPEPER*      CLOUDY    67  67  99 CALM      29.93F FOG
MANASSAS*      CLOUDY    70  70 100 CALM        N/A
LEESBURG*      CLOUDY    72  68  88 S5        29.94F
WINCHESTER     RAIN      70  68  94 S3        29.93F
FRONT ROYAL*   CLOUDY    68  64  88 CALM      29.92S
LURAY*         CLOUDY    68  68 100 CALM      29.93F FOG
$$

VAZ048-049-060>072-079>083-040600-
CENTRAL AND SOUTH CENTRAL VIRGINIA

CITY           SKY/WX    TMP DP  RH WIND       PRES   REMARKS
RICHMOND       LGT RAIN  71  69  93 NE6       29.88F
CHESTERFIELD*  NOT AVBL
PETERSBURG*    CLOUDY    72  72 100 CALM      29.87F FOG
HANOVER        CLOUDY    69  68  96 N3        29.90F FOG
TAPPAHANNOCK*  CLOUDY    71  67  88 NW3       29.90F FOG
QUINTON*       CLOUDY    70  69  99 N3        29.88F
CHARLOTTSVILLE CLOUDY    69  66  90 N5        29.92F FOG
GORDONSVILLE*  CLOUDY    68  66  94 NW3       29.92S FOG
ORANGE*        CLOUDY    70  68  94 CALM      29.94S
LOUISA*        CLOUDY    70  66  88 CALM      29.91S
BUMPASS*       CLOUDY    68  67  96 CALM      29.91F
FARMVILLE*     CLOUDY    71  71 100 CALM      29.90S FOG
CREWE*         CLOUDY    69  68  96 CALM      29.89S
FORT PICKETT*  CLOUDY    69  68  98 W10       29.88S
CHASE CITY*    CLOUDY    71  71 100 CALM      29.89F
CLARKSVILLE*   CLOUDY    70  70 100 SW3       29.89S
SOUTH HILL*    CLOUDY    71  70  97 W7        29.93S
LAWRENCEVILLE* NOT AVBL
EMPORIA*         N/A     70  70 100 CALM      29.87F FOG
$$

VAZ088>098-040600-
SOUTHEAST VIRGINIA

CITY           SKY/WX    TMP DP  RH WIND       PRES   REMARKS
NORFOLK        MOCLDY    75  72  90 SE3       29.86F
VIRGINIA BEACH CLOUDY    76  72  87 CALM      29.86F
NORFOLK NAVAL  CLOUDY    73  72  96 SE3       29.87F FOG
WEST POINT*    CLOUDY    73  70  90 E3        29.89F
SALUDA*        CLOUDY    74  70  89 SE13      29.88F
NEWPORT NEWS   CLOUDY    75  73  93 SE7       29.86F FOG
LANGLEY AFB    CLOUDY    75  73  94 E8        29.84F FOG
FORT EUSTIS    CLOUDY    73 N/A N/A SE9       29.83F
WILLIAMSBURG*  CLOUDY    75  73  94 CALM      29.87F VSB 1
HR EXEC AP*    MOCLDY    73  70  88 SE3       29.88F
FRANKLIN*      CLOUDY    73  72  98 SE6       29.86F
WAKEFIELD      LGT RAIN  73  71  93 CALM      29.85F FOG
$$

VAZ020-022-025-037-045-040600-
WEST CENTRAL AND SOUTHWEST VIRGINIA

CITY           SKY/WX    TMP DP  RH WIND       PRES   REMARKS
STAUNTON*      CLOUDY    69  66  92 CALM      29.96S FOG
WAYNESBORO*    CLOUDY    66  65  97 CALM      29.95F
HOT SPRINGS VA DRZL/FOG  63  63 100 S5        30.02F VSB<1/4
LYNCHBURG      CLOUDY    68  67  96 CALM      29.94F FOG
DANVILLE       CLOUDY    71  69  93 SW3       29.92S FOG
SOUTH BOSTON*  MOCLDY    69  68  95 MISG      29.90F
MARTINSVILLE   LGT RAIN  70  70 100 CALM      29.96S
ROANOKE        CLOUDY    68  67  96 CALM      29.96F FOG
BLACKSBURG     RAIN      66  66 100 CALM      30.00F
DUBLIN*        CLOUDY    67  67 100 CALM      29.99S FOG
MARION*        RAIN      66  65  94 W5        30.02S
HILLSVILLE*    CLOUDY    65  64  99 SW6       30.00S
RICHLANDS*     LGT RAIN  65  65 100 S5        29.99F
WISE*          CLOUDY    64  64 100 S5        30.01S
ABINGDON*      LGT RAIN  67  67  98 W3        29.99S
$$

MDZ021>025-VAZ099-100-040600-
SOUTHERN MARYLAND AND THE DELMARVA PENINSULA

CITY           SKY/WX    TMP DP  RH WIND       PRES   REMARKS
PATUXENT RIVER LGT RAIN  73  69  87 SE12      29.91S
BAY BRIDGE APT   N/A     72  64  78 SE6       29.93F
LEONARDTOWN    CLOUDY    70  64  83 CALM      29.92F
DOVER          CLOUDY    71  71 100 SE6       29.93F
GEORGETOWN     CLOUDY    70  67  90 E3        29.94F
EASTON         CLOUDY    71  70  96 CALM      29.97F
CAMBRIDGE      CLOUDY    72  68  88 CALM      29.92S
SALISBURY      LGT RAIN  70  68  93 NE5       29.92F
OCEAN CITY     CLOUDY    73  66  78 SE10      29.92F
WALLOPS ISLAND CLOUDY    74  69  85 E10       29.92F
ACCOMACK*      CLOUDY    73  70  88 SE7       29.89F
$$

NCZ012>017-030>032-040600-
NORTH CENTRAL AND EASTERN NORTH CAROLINA

CITY           SKY/WX    TMP DP  RH WIND       PRES   REMARKS
ROANOKE RAPIDS FAIR      72  72 100 SW6       29.87F
RALEIGH        CLOUDY    72  70  93 W8        29.92R
ELIZABETH CITY PTCLDY    73  73 100 SW5       29.88S FOG
AHOSKIE*       HVY RAIN N/A N/A N/A S5        29.88S
EDENTON*       MOCLDY    75  73  91 SW7       29.88F
CURRITUCK*     MOCLDY    75  73  93 CALM      29.88S FOG
KILL DEVIL HLS CLEAR     76  74  93 SW3       29.88S FOG
MANTEO         CLEAR     76  75  94 SW10      29.89S
CAPE HATTERAS  PTCLDY    77  72  84 SW17G28   29.92R
TARBORO*         N/A     75  72  91 SW6       29.89S
GOLDSBORO      PTCLDY    75  73  92 SW10      29.89S
WASHINGTON     PTCLDY    74  72  95 SW9       29.90S
GREENVILLE     PTCLDY    73  73 100 SW9       29.91S
NEW BERN       CLEAR     74  71  91 SW9       29.94R
WILMINGTON     PTCLDY    76  69  79 SW12      29.96S
$$

VAZ048-040600-
ELSEWHERE

CITY           SKY/WX    TMP DP  RH WIND       PRES   REMARKS
HARRISBURG PA  LGT RAIN  71  64  78 CALM      29.93S
BALTIMORE      LGT RAIN  71  64  78 SE3       29.93F
ANNAPOLIS      CLOUDY    73  66  78 SE13      29.92F
ANDREWS AFB    CLOUDY    69  68  96 E3        29.91F
PHILADELPHIA   CLOUDY    72  64  76 SE3       29.96F
HENDERSON NC   CLOUDY    71  68  92 W3        29.90F FOG
GREENSBORO     MOCLDY    71  71 100 SW3       29.93S
ROCKY MOUNT    PTCLDY    74  72  93 SW5       29.89S
$$

VAZ100-040600-
MARINE

STATION/POSITION TIME  TEMP    WIND        PRES    WAVE   SWELL
                       AIR SEA DIR/SP/G            HT/PER HT/PER
                 (UTC) (F)     (DEG/KT/KT) (MB)    (FT/S) (FT/S)
BRANDYWINE LGT   0400   72 71  140/ 11/ 12 1014.3F
CAPE MAY NJ      0400   72 76  120/  6/  7 1014.0F
LEWES DE         0400   72 73  140/  6/  8 1013.9F
15NM E FENWICK I 0450   74 73              1013.3F   3/ 7
OCEAN-CITY-INLET 0400   74 73  140/  7/ 10 1013.6F
WACHAPREAGUE VA  0400   75 80  100/ 10/ 12 1012.6F
GOOSES REEF MD   0500   74 77  130/ 12/ 14 1014.1F
COVE POINT MD    0400   73     160/ 14/ 20 1013.7F
SOLOMONS ISLAND  0400      80                N/A
BISHOPS HEAD MD  0400   74     110/ 12/ 13 1012.9F
PINEY POINT MD   0400          160/ 15/ 18   N/A
CAMBRIDGE MD     0400   71 79  110/  5/  8 1013.3F
LEWISETTA VA     0400   74 79  140/  9/ 12 1012.2F
RAPPAHANNOCK LGT 0400           90/ 13/ 15 1012.6F
STINGRAY PT      0500   76 80  120/ 14/ 16 1011.8F   2/ 3
YORK RVR RNG VA  0400   75     110/ 15/ 17 1011.2F
YORKTOWN VA      0400   76 79  100/ 15/ 17 1011.5F
JAMESTOWN VA     0500   73 82  360/  8/ 14   N/A
DOMINION TERM VA 0400   75     110/ 11/ 14 1011.4F
KIPTOPEKE VA     0400      82  120/  9/ 12   N/A
CHES BAY BRIDGE  0400   75 72   90/  7/  9 1011.2F
CAPE HENRY VA    0400   74     110/ 16/ 18 1010.0F
CHESAPEAKE LGHT  0400   76     120/ 21/ 22 1011.9F
WILLOUBY STN VA  0400   74     130/  7/  8 1012.3F
CAPE HENRY BUOY  0428      78                N/A     4/ 4
1ST LANDING BUOY 0500      76              1010.9F   2/ 3
CAPE CHARLES BUO 0426      78                N/A     4/ 4   2/ 9
OFFSHORE WE BUOY 0411      78                N/A     4/ 3   2/ 9
64NM E OF VA BCH 0450   77 77  140/ 14/ 16 1011.8F   4/ 8   3/ 8
DUCK PIER NC     0400   78 75  210/ 12/ 16 1010.9F
44100 DUCK FRF   0424      76                N/A     2/ 8
44056 DUCK FRF   0411      78                N/A     2/15
OREGON INLET NC  0400   78 81  230/ 10/ 13 1012.0F
HATTERAS NC      0400   77 78  210/  9/ 13 1012.4F
DIAMOND SHLS NC  0450   80 81  230/ 25/ 29 1012.5R   7/ 7   2/ 9
CAPE LOOKOUT NC  0500   80     240/ 19/ 25 1013.8R
$$


USA.gov is the U.S. government's official web portal to all federal, state and local government web resources and services.